Alabaster, AL

7:25 AM CDT on August 20, 2017 (GMT -0500)
Shelby County

Weather History for KEET - November, 2012

Change the Weather History Date:

Saturday, November 3, 2012

  Actual Average Record
Temperature  
Mean Temperature 66 °F 58 °F  
Max Temperature 82 °F 70 °F 86 °F (2016)
Min Temperature 50 °F 47 °F 20 °F (1966)
Degree Days  
Heating Degree Days 0 8  
Month to date heating degree days 16 23  
Since 1 July heating degree days 129 146  
Cooling Degree Days 1    
Growing Degree Days 16 (Base 50)    
Moisture  
Dew Point 55 °F    
Average Humidity 69    
Maximum Humidity 96    
Minimum Humidity 42    
Precipitation  
Precipitation 0.00 in 0.15 in 1.82 in (1948)
Month to date precipitation 0.00 0.45  
Year to date precipitation 46.56 45.38  
Snow  
Snow 0.00 in - - ()
Month to date snowfall 0.0  
Since 1 July snowfall 0.0  
Since 1 September snowfall 0.0  
Snow Depth 0.00 in    
Sea Level Pressure  
Sea Level Pressure 30.05 in    
Wind  
Wind Speed 1 mph (West)    
Max Wind Speed 10 mph    
Max Gust Speed 15 mph    
Visibility 9 miles    
Events      
T = Trace of Precipitation, MM = Missing Value Source: NWS Daily Summary

Daily Weather History Graph

Daily Weather History Graph

Search for Another Location

Airport or City:

Trip Planner

Search our weather history database for the weather conditions in past years. The results will help you decide how hot, cold, wet, or windy it might be!

Date:

Astronomy

Nov. 03, 2012 Rise Set
Actual Time 7:07 AM CDT 5:53 PM CDT
Civil Twilight 6:41 AM CDT 6:19 PM CDT
Nautical Twilight 6:12 AM CDT 6:48 PM CDT
Astronomical Twilight 5:43 AM CDT 7:17 PM CDT
Moon 9:38 PM CDT (11/3) 11:06 AM CDT (11/3)
Length of Visible Light 11h 37m
Length of Day
10h 45m
Waning Gibbous, 80% of the Moon is Illuminated
Nov 3
Waning Gibbous
Nov 6
Last Quarter
Nov 13
New
Nov 20
First Quarter
Nov 28
Full

Hourly Weather History & Observations

Time (CDT) Temp. Heat Index Dew Point Humidity Pressure Visibility Wind Dir Wind Speed Gust Speed Precip Events Conditions
12:53 AM 53.1 °F - 50.0 °F 89% 30.03 in 8.0 mi Calm Calm - N/A   Clear
1:53 AM 53.1 °F - 50.0 °F 89% 30.03 in 8.0 mi Calm Calm - N/A   Clear
2:53 AM 52.0 °F - 50.0 °F 93% 30.03 in 7.0 mi Calm Calm - N/A   Clear
3:53 AM 51.1 °F - 48.9 °F 92% 30.03 in 7.0 mi Calm Calm - N/A   Clear
4:53 AM 51.1 °F - 48.9 °F 92% 30.04 in 7.0 mi Calm Calm - N/A   Clear
5:53 AM 51.1 °F - 48.0 °F 89% 30.06 in 7.0 mi Calm Calm - N/A   Clear
6:53 AM 51.1 °F - 48.0 °F 89% 30.08 in 7.0 mi Calm Calm - N/A   Clear
7:53 AM 52.0 °F - 50.0 °F 93% 30.10 in 6.0 mi Calm Calm - N/A   Clear
8:53 AM 60.1 °F - 54.0 °F 80% 30.11 in 7.0 mi Calm Calm - N/A   Clear
9:53 AM 68.0 °F - 57.0 °F 68% 30.12 in 8.0 mi Calm Calm - N/A   Clear
10:53 AM 73.0 °F - 59.0 °F 61% 30.11 in 10.0 mi Calm Calm - N/A   Clear
11:53 AM 78.1 °F - 60.1 °F 54% 30.09 in 10.0 mi WNW 9.2 mph - N/A   Clear
12:53 PM 79.0 °F - 60.1 °F 52% 30.06 in 10.0 mi Variable 4.6 mph - N/A   Clear
1:53 PM 80.1 °F 80.9 °F 60.1 °F 50% 30.04 in 10.0 mi NW 3.5 mph - N/A   Clear
2:53 PM 81.0 °F 81.1 °F 57.9 °F 45% 30.02 in 10.0 mi Variable 3.5 mph - N/A   Clear
3:53 PM 81.0 °F 80.7 °F 55.0 °F 41% 30.02 in 10.0 mi West 5.8 mph - N/A   Clear
4:53 PM 80.1 °F 80.4 °F 57.0 °F 45% 30.01 in 10.0 mi SW 4.6 mph - N/A   Clear
5:53 PM 73.9 °F - 57.9 °F 57% 30.01 in 10.0 mi Calm Calm - N/A   Clear
6:53 PM 66.9 °F - 57.0 °F 70% 30.02 in 10.0 mi Calm Calm - N/A   Clear
7:53 PM 63.0 °F - 57.9 °F 84% 30.01 in 10.0 mi Calm Calm - N/A   Clear
8:53 PM 61.0 °F - 57.0 °F 87% 30.04 in 10.0 mi Calm Calm - N/A   Clear
9:53 PM 60.1 °F - 55.9 °F 86% 30.04 in 10.0 mi Calm Calm - N/A   Clear
10:53 PM 59.0 °F - 55.0 °F 87% 30.04 in 10.0 mi Calm Calm - N/A   Clear
11:53 PM 59.0 °F - 55.0 °F 87% 30.05 in 10.0 mi Calm Calm - N/A   Clear